Weather History for KMVL - July, 2013

Change the Weather History Date:

Thursday, July 25, 2013

  Actual Average Record
Temperature  
Mean Temperature 59 °F 68 °F  
Max Temperature 72 °F 80 °F 84 °F (2005)
Min Temperature 46 °F 56 °F 45 °F (1997)
Degree Days  
Heating Degree Days 6 1  
Month to date heating degree days 11 26  
Since 1 June heating degree days 141 149  
Since 1 July heating degree days 11 26  
Growing Degree Days 8 (Base 50)    
Moisture  
Dew Point 48 °F    
Average Humidity 72    
Maximum Humidity 100    
Minimum Humidity 44    
Precipitation  
Precipitation 0.00 in 0.11 in 0.32 in (1996)
Month to date precipitation 4.89 3.41  
Year to date precipitation 25.52 19.01  
Sea Level Pressure  
Sea Level Pressure 30.13 in    
Wind  
Wind Speed 1 mph (NNW)    
Max Wind Speed 7 mph    
Max Gust Speed 10 mph    
Visibility 8 miles    
Events Fog    
T = Trace of Precipitation, MM = Missing Value Source: NWS Daily Summary

Daily Weather History Graph

Daily Weather History Graph

Search for Another Location

Airport or City:

Trip Planner

Search our weather history database for the weather conditions in past years. The results will help you decide how hot, cold, wet, or windy it might be!

Date:

Astronomy

Jul. 25, 2013 Rise Set
Actual Time 5:29 AM EDT 8:23 PM EDT
Civil Twilight 4:55 AM EDT 8:57 PM EDT
Nautical Twilight 4:11 AM EDT 9:41 PM EDT
Astronomical Twilight 3:20 AM EDT 10:31 PM EDT
Moon 9:50 PM EDT (7/25) 9:06 AM EDT (7/25)
Length of Visible Light 16h 02m
Length of Day
14h 53m
Waning Gibbous, 88% of the Moon is Illuminated
Jul 25
Waning Gibbous
Jul 29
Last Quarter
Aug 6
New
Aug 14
First Quarter
Aug 20
Full

Hourly Weather History & Observations

Time (EDT) Temp. Dew Point Humidity Pressure Visibility Wind Dir Wind Speed Gust Speed Precip Events Conditions
12:54 AM 54.0 °F 50.0 °F 86% 30.09 in 10.0 mi Calm Calm - N/A   Overcast
1:54 AM 48.9 °F 46.9 °F 93% 30.09 in 10.0 mi Calm Calm - N/A   Clear
2:54 AM 46.9 °F 45.0 °F 93% 30.09 in 10.0 mi Calm Calm - N/A   Clear
3:27 AM 46.4 °F 44.6 °F 93% 30.09 in 2.5 mi Calm Calm - N/A   Partly Cloudy
3:41 AM 46.4 °F 44.6 °F 93% 30.09 in 10.0 mi Calm Calm - N/A   Mostly Cloudy
3:54 AM 46.0 °F 45.0 °F 96% 30.10 in 9.0 mi Calm Calm - N/A   Overcast
4:01 AM 46.4 °F 44.6 °F 93% 30.09 in 1.0 mi Calm Calm - N/A   Mist
4:22 AM 46.4 °F 46.4 °F 100% 30.09 in 0.5 mi Calm Calm - N/A Fog Fog
4:54 AM 46.9 °F 46.0 °F 97% 30.11 in 0.2 mi Calm Calm - N/A Fog Fog
5:54 AM 46.9 °F 45.0 °F 93% 30.12 in 0.2 mi NNW 3.5 mph - 0.01 in Fog Fog
6:54 AM 46.0 °F 45.0 °F 96% 30.14 in 0.2 mi Calm Calm - N/A Fog Fog
7:38 AM 48.2 °F 48.2 °F 100% 30.14 in 1.0 mi Calm Calm - N/A   Overcast
7:45 AM 48.2 °F 46.4 °F 93% 30.14 in 2.0 mi Calm Calm - N/A   Mostly Cloudy
7:52 AM 48.2 °F 46.4 °F 93% 30.14 in 10.0 mi Calm Calm - N/A   Mostly Cloudy
7:54 AM 48.0 °F 46.0 °F 93% 30.16 in 10.0 mi Calm Calm - N/A   Mostly Cloudy
8:04 AM 48.2 °F 46.4 °F 93% 30.15 in 10.0 mi Calm Calm - N/A   Scattered Clouds
8:54 AM 55.9 °F 45.0 °F 67% 30.16 in 10.0 mi Calm Calm - N/A   Clear
9:54 AM 57.0 °F 45.0 °F 64% 30.18 in 10.0 mi Calm Calm - N/A   Scattered Clouds
10:54 AM 61.0 °F 46.0 °F 58% 30.17 in 10.0 mi Calm Calm - N/A   Clear
11:54 AM 64.0 °F 46.9 °F 54% 30.16 in 10.0 mi Variable 3.5 mph - N/A   Clear
12:54 PM 66.0 °F 48.0 °F 52% 30.17 in 10.0 mi NNW 4.6 mph - N/A   Clear
1:54 PM 66.9 °F 50.0 °F 54% 30.15 in 10.0 mi Calm Calm - N/A   Clear
2:54 PM 70.0 °F 48.9 °F 47% 30.14 in 10.0 mi NNW 3.5 mph - N/A   Clear
3:54 PM 70.0 °F 48.0 °F 46% 30.13 in 10.0 mi Calm Calm - N/A   Clear
4:54 PM 71.1 °F 48.9 °F 45% 30.13 in 10.0 mi Calm Calm - N/A   Clear
5:54 PM 71.1 °F 48.9 °F 45% 30.13 in 10.0 mi Variable 4.6 mph - N/A   Clear
6:54 PM 70.0 °F 48.0 °F 46% 30.14 in 10.0 mi Variable 3.5 mph - N/A   Clear
7:54 PM 66.0 °F 53.1 °F 63% 30.15 in 10.0 mi Calm Calm - N/A   Clear
8:54 PM 60.1 °F 54.0 °F 80% 30.15 in 10.0 mi Calm Calm - N/A   Clear
9:54 PM 57.0 °F 54.0 °F 89% 30.17 in 10.0 mi Calm Calm - N/A   Clear
10:54 PM 55.9 °F 53.1 °F 90% 30.16 in 10.0 mi Calm Calm - N/A   Clear
11:54 PM 55.0 °F 52.0 °F 89% 30.16 in 10.0 mi Calm Calm - N/A   Clear